Location: Archamps
(46.1365°N, 6.1329°E)
Time: 10:52:15
(UTC+00:00)

CZ-6A DEB - Pass Details

Date: 28 February 2024
Orbit: 823 x 884 km, 98.8° (Epoch: 12 April)

Event Time Altitude Azimuth Distance (km) Brightness Sun altitude
Rises 05:28:37 0° 19° (NNE) 3,397 ? -9.2°
Reaches altitude 10° 05:31:05 10° 25° (NNE) 2,451 ? -8.8°
Maximum altitude 05:36:19 49° 100° (E) 1,058 ? -7.9°
Drops below altitude 10° 05:41:29 10° 175° (S) 2,416 ? -7.0°
Sets 05:43:54 0° 180° (S) 3,344 ? -6.6°
